Regional Weather Roundup
Issued by NWS Green Bay, WI

Home | Current Version | Previous Version | Graphics & Text | Print | Product List | Glossary Off
Versions: 1 2 3 4 5 6 7 8 9 10 11 12 13 14 15 16 17 18 19 20 21 22 23 24 25 26 27 28 29 30 31 32 33 34 35 36 37 38 39 40 41 42 43 44 45 46 47 48 49 50

000
ASUS43 KGRB 071311
RWRGRB

NORTH-CENTRAL AND NORTHEAST WISCONSIN REGIONAL WEATHER ROUNDUP
NATIONAL WEATHER SERVICE GREEN BAY WI
700 AM CST SUN FEB 07 2016

WIZ005-009-010>012-018-019-071400-
NORTH CENTRAL WISCONSIN

CITY           SKY/WX    TMP DP  RH WIND       PRES   REMARKS
IRONWOOD       CLOUDY    30  28  93 S10       29.49S
MANITOWISH WTR CLOUDY    29  28  99 S7        29.53F
ARBOR VITAE    CLOUDY    32  30  92 S10       29.55S
EAGLE RIVER    LGT SNOW  29  28  97 SW3       29.55F
LAND O LAKES   LGT SNOW  29  28  96 SE3       29.53F
RHINELANDER    CLOUDY    30  27  88 S9        29.57F
PHILLIPS       CLOUDY    30  28  94 S10       29.54F
ANTIGO         CLOUDY    30  28  94 SW10      29.61F
TOMAHAWK       CLOUDY    29  27  93 SW3       29.59S FOG
MERRILL        MIX PCPN  31  29  95 SW7       29.62F
$$

WIZ013-073-071400-
NORTHEAST WISCONSIN

CITY           SKY/WX    TMP DP  RH WIND       PRES   REMARKS
IRON MOUNTAIN  CLOUDY    29  26  89 S7        29.60F FOG
MARINETTE      CLOUDY    34  28  80 SW8       29.67F
OCONTO         CLOUDY    35  31  85 SW7       29.67F
$$

WIZ017-030-035>037-045-071400-
CENTRAL WISCONSIN

CITY           SKY/WX    TMP DP  RH WIND       PRES   REMARKS
MEDFORD        CLOUDY    30  28  94 S9        29.59F
WAUSAU         FLURRIES  32  28  85 S8        29.61F
MOSINEE        MOCLDY    30  28  93 SW9       29.63F
MARSHFIELD     PTCLDY    30  25  81 SW9       29.62F
WISC RAPIDS    CLOUDY    32  26  78 SW7       29.67F
STEVENS POINT  MIX PCPN  30  28  90 S5        29.65F
WAUPACA        CLOUDY    36  30  80 S5        29.68S
SHAWANO        CLOUDY    34  30  85 CALM      29.66F
CLINTONVILLE   CLOUDY    32  30  93 S6        29.66F
WAUTOMA        CLOUDY    35  31  86 SW6       29.68F
$$

WIZ038-039-048-051-071400-
FOX VALLEY

CITY           SKY/WX    TMP DP  RH WIND       PRES   REMARKS
NWS GREEN BAY  CLOUDY    36  30  79 S12       29.68F
APPLETON       CLOUDY    36  28  75 S14       29.67F
OSHKOSH        CLOUDY    36  29  75 SW13      29.69F
FOND DU LAC    CLOUDY    37  29  72 SW16G22   29.70F
$$

WIZ022-050-052-071400-
EAST CENTRAL WISCONSIN

CITY           SKY/WX    TMP DP  RH WIND       PRES   REMARKS
EPHRAIM        CLOUDY    33  31  91 S7        29.68F
STURGEON BAY   CLOUDY    34  28  80 S10       29.71F
MANITOWOC      CLOUDY    35  30  82 S8        29.72F
SHEBOYGAN      CLOUDY    38  29  70 SW14      29.72F
$$

LMZ563-521-522-541>543-071400-
LAKESHORE

STATION/POSITION TIME  TEMP    WIND        PRES    VSBY  WAVE
                       AIR SEA DIR/SP/G                  HT/PER
                 (UTC) (F)     (DEG/KT/KT) (MB)    (MI)  (FT/S)
SHEBOYGAN LKSHOR 1300   36     190/ 12/ 13 1007.4F
KEWAUNEE LKSHORE 1200   35     200/ 11/ 17 1005.9F
ALGOMA MARINA    1241          210/ 16/ 19   N/A
CHAMBERS ISLAND  1200   34     170/  8/ 13 1006.1F
MENOMINEE LKSHOR 1200   33     180/  8     1004.5F
$$



USA.gov is the U.S. government's official web portal to all federal, state and local government web resources and services.